Home > Weather > Islamabad > Past weeks

Flag for Pakistan Weather for the Past 2 Weeks in Islamabad, Pakistan

Now
43 °F

Passing clouds.


Feels Like: 40 °F
Forecast: 41 / 65 °F
Wind: 5 mph from Northeast

Location: Islamabad Airport

Current Time: Feb 13, 2016 at 4:29:35 AM

Latest Report: Feb 13, 2016 at 3:00 AM


Visibility: 2 mi

Pressure: 29.95 "Hg (27.99 "Hg at 554m altitude)

Humidity: 81%

Dew point: 37 °F

Location of IslamabadLocation

Historic Weather in Islamabad — Graph

°F

Islamabad Temperature Yesterday

Maximum temperature yesterday: 61 °F (at 2:00 PM)
Minimum temperature yesterday: 41 °F (at 5:00 AM)
Average temperature yesterday: 50 °F

High & Low Weather Summary for the Past Weeks

 TemperatureHumidityPressure
High84 °F (Feb 9, 6:00 PM)100% (Jan 30, 3:00 AM)30.15 "Hg (Jan 30, 3:00 AM)
Low41 °F (Jan 31, 6:00 AM)27% (Feb 5, 2:00 PM)29.80 "Hg (Feb 10, 5:00 PM)
Average55 °F69%30.03 "Hg
* Reported Jan 29 3:00 AM — Feb 13 3:00 AM, Islamabad, Weather by CustomWeather, © 2016

Note: Actual official high and low records may vary slightly from our data, if they occured in-between our weather recording intervals... More about our weather records

Advertising

Islamabad Weather History for the Previous 24 Hours

 ConditionsComfort  
Time TempWeatherWind HumidityBarometerVisibility
3:00 AM
Sat, Feb 13
43 °FPassing clouds.5 mph81%29.95 "Hg2 mi
2:00 AM43 °FPassing clouds.5 mph81%29.95 "Hg2 mi
1:00 AM45 °FPassing clouds.7 mph76%29.98 "Hg2 mi
12:00 AM46 °FPassing clouds.7 mph76%29.98 "Hg2 mi
11:00 PM
Fri, Feb 12
48 °FHaze.7 mph76%29.95 "Hg2 mi
10:00 PM50 °FHaze.5 mph76%29.98 "Hg2 mi
9:00 PM52 °FHaze.7 mph77%29.98 "Hg2 mi
8:00 PM54 °FHaze.12 mph72%29.95 "Hg2 mi
7:00 PM55 °FHaze.12 mph67%29.95 "Hg2 mi
6:30 PM57 °FPassing clouds.12 mph55%29.95 "Hg2 mi
6:00 PM57 °FPassing clouds.18 mph55%29.95 "Hg2 mi
5:00 PM61 °FScattered clouds.18 mph48%29.95 "Hg2 mi
4:00 PM61 °FScattered clouds.18 mph48%29.95 "Hg2 mi
3:00 PM61 °FScattered clouds.18 mph48%29.95 "Hg2 mi
2:30 PM61 °FScattered clouds.18 mph52%29.98 "Hg2 mi
2:00 PM61 °FScattered clouds.16 mph52%29.98 "Hg2 mi
1:30 PM59 °FScattered clouds.14 mph55%30.01 "Hg2 mi
1:00 PM59 °FScattered clouds.14 mph55%30.01 "Hg2 mi
12:00 PM57 °FScattered clouds.9 mph59%30.04 "Hg2 mi
11:30 AM52 °FScattered clouds.7 mph72%30.07 "Hg2 mi
11:00 AM52 °FScattered clouds.7 mph72%30.07 "Hg2 mi
10:30 AM48 °FFog.7 mph82%30.09 "Hg1 mi
10:00 AM48 °FFog.7 mph82%30.09 "Hg1 mi
9:30 AM45 °FFog.7 mph87%30.07 "Hg1 mi
9:00 AM45 °FFog.7 mph87%30.07 "Hg1 mi
8:30 AM41 °FFog.No wind93%30.07 "Hg1 mi
8:00 AM41 °FFog.No wind93%30.07 "Hg1 mi
7:30 AM41 °FFog.No wind87%30.07 "Hg1 mi
7:00 AM41 °FFog.No wind87%30.07 "Hg1 mi
6:30 AM41 °FFog.No wind87%30.04 "Hg2 mi
6:00 AM41 °FFog.No wind87%30.04 "Hg2 mi
5:00 AM41 °FFog.No wind93%30.01 "Hg2 mi
4:00 AM43 °FFog.No wind87%30.01 "Hg2 mi
Weather by CustomWeather, © 2016

See weather overviewHow to use our weather pages